Weather reports worldwide

Advertisment
Sodankyla, Finland (2836): temperature & dewpoint: 16.08.2019 21:00:00 - 22.08.2019 21:00:00 (EEST)Sodankyla, Finland (2836): wind speed & gusts: 16.08.2019 21:00:00 - 22.08.2019 21:00:00 (EEST)Sodankyla, Finland (2836): wind direction: 16.08.2019 21:00:00 - 22.08.2019 21:00:00 (EEST)Sodankyla, Finland (2836): reduced air pressure: 16.08.2019 21:00:00 - 22.08.2019 21:00:00 (EEST)Sodankyla, Finland (2836): visibility: 16.08.2019 21:00:00 - 22.08.2019 21:00:00 (EEST)Sodankyla, Finland (2836): precipitation: 16.08.2019 21:00:00 - 22.08.2019 21:00:00 (EEST)
Date & Time tt [°C] td [°C] ff [km/h] ff [kn] fx [km/h] fx [kn] dd ppp [hPa] vv [km] rr [mm]
22.08.2019 21:00:00 13,3 10,2 3 2 20 11 WNW 1015,4 50 0,0
22.08.2019 20:00:00 14,2 10,4 9 5 16 9 NW 1014,9 50 0,0
22.08.2019 19:00:00 14,7 11,7 3 1 15 8 S 1014,5 50 0,0
22.08.2019 18:00:00 15,3 10,6 5 3 9 5 NE 1014,3 50 0,2
22.08.2019 17:00:00 15,2 10,3 6 4 19 10 NW 1013,9 7 0,3
22.08.2019 16:00:00 15,8 8,8 5 3 20 11 W 1013,9 50 0,0
22.08.2019 15:00:00 17,1 9,6 9 5 16 9 ESE 1013,4 42 0,0
22.08.2019 14:00:00 16,3 10,3 6 4 20 11 NW 1013,7 50 0,0
22.08.2019 13:00:00 16,4 10,8 8 4 16 9 WSW 1014,0 50 0,0
22.08.2019 12:00:00 16,0 11,3 6 4 17 9 SW 1013,9 44 0,0
22.08.2019 11:00:00 14,8 10,9 6 4 13 7 S 1013,9 47 0,0
22.08.2019 10:00:00 13,5 11,1 5 3 17 9 S 1014,1 41 0,0
22.08.2019 09:00:00 12,0 10,8 9 5 20 11 SW 1014,3 47 0,0
22.08.2019 08:00:00 12,2 11,1 9 5 16 8 SSW 1014,2 50 0,0
22.08.2019 07:00:00 11,7 11,2 9 5 19 11 S 1014,1 27 0,0
22.08.2019 06:00:00 11,6 11,3 10 6 18 10 S 1013,9 17 0,0
22.08.2019 05:00:00 11,7 11,2 6 4 16 9 SSW 1013,9 23 0,0
22.08.2019 04:00:00 11,8 11,4 6 3 22 12 SSW 1014,0 21 0,0
22.08.2019 03:00:00 11,8 11,4 12 7 18 10 S 1014,1 27 0,0
22.08.2019 02:00:00 11,3 11,1 8 5 14 8 SSE 1014,3 26 0,0
22.08.2019 01:00:00 11,2 10,3 6 3 19 11 SSE 1014,2 50 0,0
22.08.2019 00:00:00 11,6 10,6 12 6 26 14 SSW 1014,2 49 0,0
21.08.2019 23:00:00 12,2 11,0 10 5 22 12 S 1014,1 50 0,0
21.08.2019 22:00:00 13,4 11,7 14 7 21 11 SSW 1013,7 47 0,0
21.08.2019 21:00:00 14,7 13,0 11 6 22 12 S 1013,7 45 0,0
21.08.2019 20:00:00 15,7 13,3 13 7 24 13 S 1013,6 48 0,0
21.08.2019 19:00:00 15,7 13,3 12 7 24 13 S 1013,6 50 0,0
21.08.2019 18:00:00 15,2 13,6 9 5 18 10 SSE 1013,7 42 0,0
21.08.2019 17:00:00 14,0 13,4 0 0 12 7 N 1014,1 7 1,4
21.08.2019 16:00:00 15,3 14,1 5 3 15 8 S 1014,2 28 0,0
21.08.2019 15:00:00 15,1 14,2 7 4 14 8 SE 1014,0 22 0,0
21.08.2019 14:00:00 14,0 13,6 9 5 15 8 SSE 1014,3 4,8 0,1
21.08.2019 13:00:00 13,3 13,0 9 5 16 9 SSE 1014,4 2,8 0,6
21.08.2019 12:00:00 13,1 12,8 4 2 11 6 SW 1014,4 2,1 0,8
21.08.2019 11:00:00 12,8 12,5 8 4 17 9 SSE 1013,9 7 3,4
21.08.2019 10:00:00 13,3 12,7 9 5 21 11 S 1013,8 2,7 0,0
21.08.2019 09:00:00 13,2 12,6 8 4 16 9 SSE 1013,4 10 0,0
21.08.2019 08:00:00 13,1 12,4 8 4 16 8 SSE 1013,2 13 0,0
21.08.2019 07:00:00 12,9 12,2 6 3 13 7 SSE 1013,0 18 0,0
21.08.2019 06:00:00 12,6 12,1 6 3 10 5 SE 1012,8 17 0,0
21.08.2019 05:00:00 12,4 12,0 5 3 10 5 SE 1012,5 14 0,0
21.08.2019 04:00:00 12,4 11,9 5 3 14 7 SSE 1012,2 16 0,0
21.08.2019 03:00:00 12,5 11,9 7 4 19 11 S 1011,9 19 0,0
21.08.2019 02:00:00 12,6 12,0 11 6 19 11 S 1011,5 18 0,0
21.08.2019 01:00:00 12,5 11,9 5 3 26 14 SW 1011,1 16 1,1
21.08.2019 00:00:00 13,0 12,0 8 4 26 14 S 1011,2 6 0,5
20.08.2019 23:00:00 13,9 11,5 11 6 17 9 S 1011,1 36 0,0
20.08.2019 22:00:00 13,8 11,3 5 3 17 9 S 1011,0 47 0,0
20.08.2019 21:00:00 14,9 11,2 10 5 24 13 SSW 1010,8 42 0,0
20.08.2019 20:00:00 15,2 11,2 13 7 31 17 SSW 1010,3 50 0,0
20.08.2019 19:00:00 15,9 12,0 13 7 30 16 S 1009,6 47 0,0
20.08.2019 18:00:00 16,1 11,9 14 8 37 20 S 1009,4 50 0,0
20.08.2019 17:00:00 16,8 11,8 19 10 42 23 S 1008,6 46 0,0
20.08.2019 16:00:00 17,4 11,8 26 14 45 25 S 1008,1 34 0,0
20.08.2019 15:00:00 17,9 12,0 17 9 33 18 S 1008,0 37 0,0
20.08.2019 14:00:00 18,0 12,2 16 9 37 20 SSW 1007,7 36 0,0
20.08.2019 13:00:00 16,9 11,6 22 12 41 22 SSW 1007,2 40 0,0
20.08.2019 12:00:00 17,6 11,9 24 13 40 22 S 1006,7 41 0,0
20.08.2019 11:00:00 16,3 12,4 20 11 42 23 S 1006,4 43 0,0
20.08.2019 10:00:00 14,7 11,9 19 11 40 22 S 1006,1 41 0,0
20.08.2019 09:00:00 14,2 11,9 21 11 36 19 S 1005,6 44 0,0
20.08.2019 08:00:00 13,4 12,0 16 9 31 17 S 1005,4 39 0,0
20.08.2019 07:00:00 13,4 12,0 16 9 30 16 S 1005,0 40 0,0
20.08.2019 06:00:00 13,1 12,0 15 8 27 15 S 1004,5 35 0,0
20.08.2019 05:00:00 13,1 12,0 13 7 31 17 S 1004,4 34 0,0
20.08.2019 04:00:00 13,2 11,8 13 7 32 17 S 1004,3 39 0,0
20.08.2019 03:00:00 13,3 12,1 16 9 29 15 S 1003,6 41 0,0
20.08.2019 02:00:00 13,2 12,2 17 9 29 16 S 1003,6 50 0,0
20.08.2019 01:00:00 13,1 12,1 13 7 27 14 S 1003,6 50 0,0
20.08.2019 00:00:00 13,3 12,1 17 9 31 17 S 1003,2 50 0,0
19.08.2019 23:00:00 13,9 12,6 21 11 42 23 S 1002,8 50 0,0
19.08.2019 22:00:00 14,5 13,5 21 12 40 22 S 1002,0 13 0,0
19.08.2019 21:00:00 14,2 13,7 14 8 31 17 SSE 1001,6 17 0,0
19.08.2019 20:00:00 14,2 13,6 17 9 39 21 SSE 1001,7 48 0,2
19.08.2019 19:00:00 13,7 13,1 20 11 36 20 SE 1001,8 11 0,4
19.08.2019 18:00:00 13,7 13,0 20 11 42 23 SE 1002,0 10 0,3
19.08.2019 17:00:00 13,6 12,6 19 10 41 22 ESE 1002,5 17 0,7
19.08.2019 16:00:00 14,2 12,3 16 9 35 19 SE 1003,5 11 0,6
19.08.2019 15:00:00 15,8 11,4 16 9 36 20 SE 1003,6 27 0,0
19.08.2019 14:00:00 17,7 9,8 18 10 37 20 SE 1003,9 34 0,0
19.08.2019 13:00:00 18,4 9,5 17 9 40 21 SE 1004,3 49 0,0
19.08.2019 12:00:00 18,1 9,3 18 10 41 22 SE 1004,9 50 0,0
19.08.2019 11:00:00 18,2 9,0 22 12 40 21 SE 1005,6 49 0,0
19.08.2019 10:00:00 16,3 10,0 15 8 36 19 SE 1006,3 50 0,0
19.08.2019 09:00:00 14,7 9,7 18 10 32 17 SE 1007,0 50 0,0
19.08.2019 08:00:00 13,4 9,4 15 8 31 17 SE 1007,5 50 0,0
19.08.2019 07:00:00 13,0 9,9 12 7 24 13 SE 1008,1 49 0,0
19.08.2019 06:00:00 13,0 11,1 12 7 21 11 SE 1008,5 47 0,0
19.08.2019 05:00:00 13,3 12,0 13 7 22 12 SE 1008,8 49 0,0
19.08.2019 04:00:00 13,0 12,1 9 5 17 9 SE 1009,2 36 0,0
19.08.2019 03:00:00 13,5 12,6 10 6 18 10 SE 1009,6 41 0,1
19.08.2019 02:00:00 13,9 12,8 9 5 19 10 SSE 1010,0 31 0,0
19.08.2019 01:00:00 14,1 13,0 11 6 23 13 SSE 1010,0 45 0,0
19.08.2019 00:00:00 14,0 13,3 11 6 22 12 SE 1010,0 37 0,2
18.08.2019 23:00:00 14,2 13,4 11 6 20 11 SE 1010,1 21 0,0
18.08.2019 22:00:00 14,3 12,9 9 5 23 12 SSE 1010,1 44 0,0
18.08.2019 21:00:00 15,1 13,2 14 8 25 13 S 1010,3 10 0,0
18.08.2019 20:00:00 16,0 13,2 10 5 28 15 S 1010,0 46 0,0
18.08.2019 19:00:00 17,3 12,9 14 8 30 16 S 1009,6 50 0,0
18.08.2019 18:00:00 17,8 12,7 22 12 40 22 S 1009,6 50 0,0
18.08.2019 17:00:00 18,2 13,5 19 10 46 25 S 1009,3 49 0,0
18.08.2019 16:00:00 17,4 14,1 18 10 41 22 S 1009,6 50 0,0
18.08.2019 15:00:00 18,5 12,3 16 8 37 20 S 1009,4 42 0,0
18.08.2019 14:00:00 19,9 11,3 17 9 44 24 S 1009,0 47 0,0
18.08.2019 13:00:00 19,5 11,9 17 9 41 22 S 1009,0 41 0,0
18.08.2019 12:00:00 19,3 11,6 - - - - S 1009,4 33 0,0
18.08.2019 11:00:00 17,6 11,9 22 12 40 22 S 1009,4 43 0,0
18.08.2019 10:00:00 16,7 12,3 18 10 39 21 S 1009,4 46 0,0
18.08.2019 09:00:00 15,7 12,9 20 11 38 20 S 1009,5 48 0,0
18.08.2019 08:00:00 15,4 13,0 16 9 32 17 S 1009,2 49 0,0
18.08.2019 07:00:00 14,8 13,3 13 7 24 13 S 1009,0 50 0,0
18.08.2019 06:00:00 14,2 13,1 10 5 24 13 SSE 1009,2 44 0,0
18.08.2019 05:00:00 14,4 12,9 11 6 22 12 SSE 1009,3 46 0,0
18.08.2019 04:00:00 14,9 13,3 14 8 32 17 S 1009,3 50 0,0
18.08.2019 03:00:00 14,9 13,9 16 9 29 16 S 1008,9 26 0,0
18.08.2019 02:00:00 13,9 13,4 9 5 19 10 SSE 1008,9 18 0,0
18.08.2019 01:00:00 14,3 13,6 8 5 19 10 SE 1008,8 19 0,1
18.08.2019 00:00:00 14,4 13,6 9 5 19 10 SSE 1009,0 25 0,0
17.08.2019 23:00:00 14,4 13,4 11 6 19 11 SSE 1009,3 24 0,0
17.08.2019 22:00:00 15,1 13,4 12 6 21 11 S 1009,5 31 0,0
17.08.2019 21:00:00 15,3 13,7 9 5 21 11 S 1009,6 35 0,0
17.08.2019 20:00:00 15,4 13,5 15 8 27 14 S 1009,5 17 0,0
17.08.2019 19:00:00 16,0 13,1 13 7 29 16 S 1009,1 50 0,0
17.08.2019 18:00:00 16,3 13,0 14 7 35 19 S 1009,1 48 0,0
17.08.2019 17:00:00 16,6 13,1 17 9 30 16 S 1009,2 42 0,0
17.08.2019 16:00:00 15,6 13,0 13 7 28 15 S 1009,5 14 0,0
17.08.2019 15:00:00 15,5 12,5 18 10 31 17 S 1009,7 36 0,0
17.08.2019 14:00:00 15,1 12,5 23 12 42 23 S 1009,5 11 0,0
17.08.2019 13:00:00 16,9 11,2 18 10 60 32 S 1009,0 47 0,0
17.08.2019 12:00:00 15,8 10,8 14 7 31 17 S 1009,0 50 0,0
17.08.2019 11:00:00 14,2 10,6 16 9 32 17 S 1009,2 48 0,0
17.08.2019 10:00:00 14,2 11,0 15 8 31 17 SSW 1009,3 43 0,0
17.08.2019 09:00:00 13,6 11,5 16 9 31 17 SSW 1009,4 37 0,0
17.08.2019 08:00:00 12,7 11,4 15 8 31 17 SSW 1009,3 37 0,0
17.08.2019 07:00:00 11,7 10,7 14 8 30 16 S 1009,1 34 0,0
17.08.2019 06:00:00 11,2 10,4 16 8 29 16 S 1009,2 36 0,0
17.08.2019 05:00:00 10,3 9,7 13 7 23 13 S 1009,2 41 0,0
17.08.2019 04:00:00 9,9 9,7 14 8 23 13 S 1009,3 21 0,0
17.08.2019 03:00:00 9,7 9,7 10 5 19 10 S 1009,6 10 0,0
17.08.2019 02:00:00 9,3 9,2 11 6 18 10 S 1009,5 8 0,0
17.08.2019 01:00:00 9,4 9,0 8 4 16 9 SSE 1009,7 14 0,0
17.08.2019 00:00:00 10,4 9,6 10 5 20 11 SSE 1009,6 39 0,0
16.08.2019 23:00:00 10,3 9,6 12 6 19 10 SE 1009,6 43 0,0
16.08.2019 22:00:00 10,7 9,5 8 5 14 8 SE 1009,7 42 0,0
16.08.2019 21:00:00 11,9 9,6 6 3 10 6 ESE 1009,6 45 0,0

tt = temperature
td = dewpoint
ff = wind speed
fx = gusts
dd = wind direction
ppp = reduced air pressure
vv = visibility
rr = precipitation

Next stations